TVP7438 EPWA-LGIR

Flight info

Callsign TVP7438
Flight time 2h 35m
Altitude 33000
Route EVINA DCT KOTEK DCT KEKED DCT VERIG/N0451F350 DCT LOMOS DCT NIKTI DCT KOROS/N0451F360 DCT NEVRA/N0450F350 UT514 GIVIS T514 XAVIS
Aircraft B738/M-SDE3FGHIJ1RWXY/LB1

Departure

Time 2026-05-07 07:09
Airport Warsaw Chopin Airport (EPWA)

Arrival

Time 2026-05-07 09:44
Airport Heraklion International Nikos Kazantzakis Airport (LGIR)
Time Latitude Longitude Altitude Speed Heading
2026-05-07 06:53 52.17984 20.96261 338 ft 0 kts 167°
2026-05-07 07:00 52.18001 20.96256 335 ft 4 kts 182°
2026-05-07 07:00 52.18025 20.96267 334 ft 4 kts 226°
2026-05-07 07:00 52.18033 20.96289 334 ft 0 kts 261°
2026-05-07 07:03 52.18021 20.96197 338 ft 13 kts 259°
2026-05-07 07:03 52.18002 20.96048 338 ft 13 kts 255°
2026-05-07 07:03 52.17965 20.95937 336 ft 8 kts 221°
2026-05-07 07:04 52.17883 20.95967 337 ft 19 kts 152°
2026-05-07 07:04 52.17766 20.96068 336 ft 19 kts 152°
2026-05-07 07:04 52.17653 20.96168 335 ft 18 kts 151°
2026-05-07 07:04 52.17544 20.96264 338 ft 18 kts 152°
2026-05-07 07:05 52.17436 20.96357 334 ft 18 kts 152°
2026-05-07 07:05 52.17331 20.96448 336 ft 17 kts 152°
2026-05-07 07:05 52.17229 20.96537 336 ft 16 kts 152°
2026-05-07 07:05 52.17124 20.96629 337 ft 20 kts 151°
2026-05-07 07:06 52.17005 20.96734 336 ft 21 kts 152°
2026-05-07 07:06 52.16864 20.96857 336 ft 22 kts 151°
2026-05-07 07:06 52.16729 20.96974 338 ft 21 kts 151°
2026-05-07 07:06 52.16661 20.97061 337 ft 11 kts 112°
2026-05-07 07:07 52.16616 20.97224 335 ft 21 kts 114°
2026-05-07 07:07 52.16556 20.97437 334 ft 20 kts 115°
2026-05-07 07:07 52.16498 20.97643 335 ft 20 kts 114°
2026-05-07 07:07 52.16436 20.97804 338 ft 13 kts 158°
2026-05-07 07:08 52.16381 20.97779 338 ft 0 kts 205°
2026-05-07 07:08 52.16361 20.97764 336 ft 13 kts 205°
2026-05-07 07:08 52.16322 20.97613 333 ft 24 kts 294°
2026-05-07 07:09 52.16499 20.96981 334 ft 99 kts 295°
2026-05-07 07:09 52.16877 20.95625 365 ft 159 kts 294°
2026-05-07 07:09 52.17340 20.93913 1124 ft 159 kts 294°
2026-05-07 07:09 52.17800 20.92392 2148 ft 149 kts 293°
2026-05-07 07:10 52.18168 20.90650 2382 ft 178 kts 273°
2026-05-07 07:10 52.18022 20.88605 2918 ft 187 kts 256°
2026-05-07 07:10 52.17739 20.86494 3461 ft 196 kts 255°
2026-05-07 07:10 52.17419 20.84199 3650 ft 219 kts 256°
2026-05-07 07:11 52.17080 20.81683 3975 ft 237 kts 256°
2026-05-07 07:11 52.16717 20.78934 4350 ft 255 kts 257°
2026-05-07 07:11 52.16346 20.76080 5121 ft 259 kts 256°
2026-05-07 07:11 52.15978 20.73247 5955 ft 260 kts 255°
2026-05-07 07:12 52.15200 20.70604 6662 ft 263 kts 229°
2026-05-07 07:12 52.13870 20.68556 7449 ft 264 kts 220°
2026-05-07 07:12 52.12425 20.66718 8238 ft 265 kts 218°
2026-05-07 07:12 52.10945 20.64899 9034 ft 267 kts 218°
2026-05-07 07:13 52.09458 20.63067 9827 ft 269 kts 218°
2026-05-07 07:13 52.07950 20.61195 10293 ft 282 kts 219°
2026-05-07 07:13 52.06329 20.59169 10457 ft 305 kts 219°
2026-05-07 07:13 52.04596 20.56994 10624 ft 326 kts 219°
2026-05-07 07:14 52.02745 20.54667 10902 ft 342 kts 219°
2026-05-07 07:14 52.00844 20.52275 11462 ft 348 kts 219°
2026-05-07 07:14 51.98926 20.49864 12182 ft 349 kts 219°
2026-05-07 07:14 51.97001 20.47447 12881 ft 351 kts 219°
2026-05-07 07:15 51.94974 20.45205 13532 ft 357 kts 207°
2026-05-07 07:15 51.92613 20.44040 14100 ft 364 kts 191°
2026-05-07 07:15 51.90047 20.43600 14709 ft 368 kts 188°
2026-05-07 07:15 51.87487 20.43251 15273 ft 371 kts 187°
2026-05-07 07:16 51.84901 20.42907 15832 ft 374 kts 187°
2026-05-07 07:16 51.82293 20.42546 16417 ft 377 kts 188°
2026-05-07 07:16 51.79668 20.42166 16963 ft 380 kts 188°
2026-05-07 07:16 51.77022 20.41772 17506 ft 384 kts 188°
2026-05-07 07:17 51.74358 20.41369 18052 ft 387 kts 188°
2026-05-07 07:17 51.71697 20.40965 18538 ft 389 kts 188°
2026-05-07 07:17 51.68989 20.40553 19049 ft 391 kts 188°
2026-05-07 07:17 51.66278 20.40142 19567 ft 392 kts 188°
2026-05-07 07:18 51.63560 20.39731 20061 ft 394 kts 188°
2026-05-07 07:18 51.60823 20.39317 20547 ft 396 kts 188°
2026-05-07 07:18 51.58069 20.38901 21024 ft 398 kts 188°
2026-05-07 07:18 51.55308 20.38484 21487 ft 400 kts 188°
2026-05-07 07:19 51.52533 20.38066 21946 ft 402 kts 188°
2026-05-07 07:19 51.49739 20.37645 22398 ft 403 kts 188°
2026-05-07 07:19 51.46938 20.37224 22842 ft 405 kts 188°
2026-05-07 07:19 51.44157 20.36806 23250 ft 408 kts 188°
2026-05-07 07:20 51.41322 20.36381 23624 ft 410 kts 188°
2026-05-07 07:20 51.38474 20.35954 23992 ft 411 kts 188°
2026-05-07 07:20 51.35620 20.35528 24364 ft 413 kts 188°
2026-05-07 07:20 51.32745 20.35099 24706 ft 415 kts 188°
2026-05-07 07:21 51.29862 20.34670 25040 ft 416 kts 188°
2026-05-07 07:21 51.26978 20.34241 25366 ft 418 kts 188°
2026-05-07 07:21 51.24074 20.33810 25679 ft 420 kts 188°
2026-05-07 07:21 51.21154 20.33377 26011 ft 421 kts 188°
2026-05-07 07:22 51.18233 20.32944 26358 ft 422 kts 188°
2026-05-07 07:22 51.15301 20.32511 26672 ft 424 kts 188°
2026-05-07 07:22 51.12358 20.32075 26958 ft 426 kts 188°
2026-05-07 07:22 51.09397 20.31638 27171 ft 428 kts 188°
2026-05-07 07:23 51.06424 20.31199 27435 ft 430 kts 188°
2026-05-07 07:23 51.03441 20.30760 27775 ft 430 kts 188°
2026-05-07 07:23 51.00466 20.30324 28227 ft 428 kts 188°
2026-05-07 07:23 50.97546 20.29897 28698 ft 424 kts 188°
2026-05-07 07:24 50.94609 20.29467 29114 ft 423 kts 188°
2026-05-07 07:24 50.91674 20.29037 29473 ft 423 kts 188°
2026-05-07 07:24 50.88749 20.28608 29834 ft 422 kts 188°
2026-05-07 07:24 50.85857 20.28185 30190 ft 421 kts 188°
2026-05-07 07:25 50.80047 20.27338 30840 ft 418 kts 188°
2026-05-07 07:25 50.77151 20.26916 31140 ft 418 kts 188°
2026-05-07 07:25 50.74256 20.26494 31427 ft 417 kts 188°
2026-05-07 07:26 50.71368 20.26075 31772 ft 415 kts 188°
2026-05-07 07:26 50.68499 20.25661 32113 ft 413 kts 187°
2026-05-07 07:26 50.65615 20.25617 32362 ft 417 kts 179°
2026-05-07 07:26 50.62753 20.26199 32610 ft 420 kts 173°
2026-05-07 07:27 50.59919 20.27430 32873 ft 424 kts 167°
2026-05-07 07:27 50.54266 20.30367 32872 ft 429 kts 166°
2026-05-07 07:28 50.48625 20.33303 32861 ft 423 kts 166°
2026-05-07 07:28 50.43041 20.36169 32872 ft 422 kts 167°
2026-05-07 07:29 50.37444 20.39011 32883 ft 423 kts 167°
2026-05-07 07:29 50.31861 20.41834 32884 ft 425 kts 167°
2026-05-07 07:30 50.26227 20.44676 32884 ft 426 kts 167°
2026-05-07 07:30 50.20584 20.47516 32872 ft 427 kts 167°
2026-05-07 07:31 50.14926 20.50359 32882 ft 427 kts 167°
2026-05-07 07:31 50.09265 20.53195 32859 ft 427 kts 167°
2026-05-07 07:32 50.03597 20.56028 32881 ft 427 kts 167°
2026-05-07 07:32 49.97943 20.58847 32885 ft 427 kts 167°
2026-05-07 07:33 49.92280 20.61662 32882 ft 427 kts 167°
2026-05-07 07:33 49.86614 20.64473 32884 ft 428 kts 167°
2026-05-07 07:34 49.80935 20.67282 32893 ft 428 kts 167°
2026-05-07 07:34 49.75297 20.70065 32894 ft 428 kts 167°
2026-05-07 07:35 49.69573 20.72883 32866 ft 429 kts 167°
2026-05-07 07:35 49.63924 20.75658 32888 ft 429 kts 167°
2026-05-07 07:36 49.58218 20.78453 32909 ft 430 kts 167°
2026-05-07 07:36 49.53475 20.80772 32922 ft 430 kts 167°
2026-05-07 07:37 49.47767 20.83556 32926 ft 431 kts 167°
2026-05-07 07:37 49.42038 20.86344 32923 ft 432 kts 167°
2026-05-07 07:38 49.36298 20.89130 32908 ft 432 kts 167°
2026-05-07 07:38 49.30561 20.91908 32915 ft 431 kts 167°
2026-05-07 07:39 49.24841 20.94671 32919 ft 431 kts 167°
2026-05-07 07:39 49.19148 20.97414 32934 ft 431 kts 167°
2026-05-07 07:40 49.13421 21.00167 32932 ft 432 kts 167°
2026-05-07 07:40 49.07687 21.02917 32936 ft 431 kts 167°
2026-05-07 07:41 49.01962 21.05656 32934 ft 431 kts 167°
2026-05-07 07:41 48.96254 21.08379 32937 ft 431 kts 167°
2026-05-07 07:42 48.90533 21.11103 32951 ft 430 kts 167°
2026-05-07 07:42 48.84808 21.13821 32955 ft 431 kts 167°
2026-05-07 07:43 48.79062 21.16543 32964 ft 433 kts 167°
2026-05-07 07:43 48.73307 21.19263 32973 ft 434 kts 167°
2026-05-07 07:44 48.67565 21.21971 32962 ft 435 kts 167°
2026-05-07 07:44 48.61767 21.24700 32958 ft 436 kts 167°
2026-05-07 07:45 48.55979 21.27417 32941 ft 436 kts 166°
2026-05-07 07:45 48.50152 21.29959 32951 ft 435 kts 170°
2026-05-07 07:46 48.44227 21.31908 32937 ft 436 kts 172°
2026-05-07 07:46 48.38275 21.33786 32945 ft 438 kts 172°
2026-05-07 07:47 48.32304 21.35703 32953 ft 439 kts 172°
2026-05-07 07:47 48.26343 21.37640 32965 ft 439 kts 172°
2026-05-07 07:48 48.20397 21.39579 32950 ft 440 kts 172°
2026-05-07 07:48 48.14408 21.41527 32950 ft 439 kts 172°
2026-05-07 07:49 48.08432 21.43465 32966 ft 439 kts 172°
2026-05-07 07:49 48.02461 21.45395 32971 ft 438 kts 172°
2026-05-07 07:50 47.96528 21.47309 32967 ft 437 kts 172°
2026-05-07 07:50 47.90582 21.49223 32978 ft 437 kts 172°
2026-05-07 07:51 47.84637 21.51132 32981 ft 436 kts 172°
2026-05-07 07:51 47.78711 21.53030 32969 ft 436 kts 172°
2026-05-07 07:52 47.72782 21.54925 32991 ft 436 kts 172°
2026-05-07 07:52 47.66882 21.56805 32989 ft 437 kts 172°
2026-05-07 07:53 47.60907 21.58705 32996 ft 438 kts 172°
2026-05-07 07:53 47.54939 21.60600 32995 ft 439 kts 172°
2026-05-07 07:54 47.48961 21.62493 32997 ft 440 kts 172°
2026-05-07 07:54 47.42964 21.64388 32986 ft 440 kts 173°
2026-05-07 07:55 47.36972 21.66276 32996 ft 440 kts 173°
2026-05-07 07:55 47.31009 21.68151 32990 ft 441 kts 172°
2026-05-07 07:56 47.25000 21.70037 33004 ft 441 kts 172°
2026-05-07 07:56 47.18980 21.71922 33004 ft 442 kts 173°
2026-05-07 07:57 47.13013 21.74290 33016 ft 446 kts 167°
2026-05-07 07:57 47.07115 21.77225 33023 ft 448 kts 166°
2026-05-07 07:58 47.01211 21.80185 33023 ft 448 kts 166°
2026-05-07 07:58 46.95347 21.83060 33007 ft 448 kts 167°
2026-05-07 07:59 46.89425 21.85921 33012 ft 448 kts 167°
2026-05-07 07:59 46.83497 21.88768 33021 ft 448 kts 167°
2026-05-07 08:00 46.77560 21.91613 33019 ft 448 kts 167°
2026-05-07 08:00 46.71636 21.94447 33022 ft 448 kts 167°
2026-05-07 08:01 46.65746 21.97258 33026 ft 448 kts 167°
2026-05-07 08:01 46.59872 22.00055 33018 ft 448 kts 167°
2026-05-07 08:02 46.53975 22.02857 33032 ft 449 kts 167°
2026-05-07 08:02 46.48025 22.05677 33014 ft 450 kts 167°
2026-05-07 08:03 46.42072 22.08493 33031 ft 450 kts 167°
2026-05-07 08:03 46.36107 22.11308 33035 ft 451 kts 167°
2026-05-07 08:04 46.30136 22.14119 33018 ft 451 kts 167°
2026-05-07 08:04 46.24205 22.16905 33025 ft 452 kts 167°
2026-05-07 08:05 46.18221 22.19710 33031 ft 453 kts 167°
2026-05-07 08:05 46.12221 22.22514 33042 ft 454 kts 167°
2026-05-07 08:06 46.06203 22.25322 33049 ft 455 kts 167°
2026-05-07 08:06 46.00179 22.28126 33040 ft 455 kts 167°
2026-05-07 08:07 45.94185 22.30910 33028 ft 455 kts 167°
2026-05-07 08:07 45.88162 22.33701 33043 ft 455 kts 167°
2026-05-07 08:08 45.82137 22.36486 33045 ft 455 kts 167°
2026-05-07 08:08 45.76114 22.39263 33044 ft 454 kts 167°
2026-05-07 08:09 45.70123 22.42020 33055 ft 454 kts 167°
2026-05-07 08:09 45.64106 22.44783 33033 ft 454 kts 167°
2026-05-07 08:10 45.58092 22.47539 33046 ft 454 kts 167°
2026-05-07 08:10 45.52079 22.50287 33062 ft 453 kts 167°
2026-05-07 08:11 45.46079 22.53028 33048 ft 452 kts 167°
2026-05-07 08:11 45.40090 22.55754 33073 ft 453 kts 167°
2026-05-07 08:12 45.34083 22.58476 33059 ft 454 kts 167°
2026-05-07 08:12 45.28067 22.61199 33060 ft 453 kts 167°
2026-05-07 08:13 45.22062 22.63913 33083 ft 453 kts 167°
2026-05-07 08:13 45.16086 22.66608 33078 ft 453 kts 167°
2026-05-07 08:14 45.10067 22.69317 33092 ft 454 kts 167°
2026-05-07 08:14 45.04045 22.72021 33079 ft 454 kts 168°
2026-05-07 08:15 44.98035 22.74714 33072 ft 454 kts 167°
2026-05-07 08:15 44.92010 22.77406 33076 ft 454 kts 167°
2026-05-07 08:16 44.86016 22.80080 33087 ft 454 kts 167°
2026-05-07 08:16 44.79974 22.82770 33086 ft 455 kts 167°
2026-05-07 08:17 44.73927 22.85455 33092 ft 455 kts 167°
2026-05-07 08:17 44.67882 22.88133 33084 ft 455 kts 167°
2026-05-07 08:18 44.61835 22.90807 33085 ft 456 kts 167°
2026-05-07 08:18 44.55788 22.93475 33084 ft 455 kts 167°
2026-05-07 08:19 44.49790 22.96116 33090 ft 454 kts 168°
2026-05-07 08:19 44.43764 22.98763 33081 ft 453 kts 168°
2026-05-07 08:20 44.37839 23.01361 33085 ft 453 kts 168°
2026-05-07 08:20 44.31830 23.03989 33078 ft 452 kts 167°
2026-05-07 08:21 44.25818 23.06612 33084 ft 453 kts 167°
2026-05-07 08:21 44.19794 23.09235 33089 ft 454 kts 167°
2026-05-07 08:22 44.13761 23.11857 33093 ft 454 kts 167°
2026-05-07 08:22 44.07713 23.14480 33083 ft 455 kts 167°
2026-05-07 08:23 44.02680 23.16659 33070 ft 455 kts 167°
2026-05-07 08:23 43.95648 23.19697 33076 ft 456 kts 167°
2026-05-07 08:24 43.89587 23.22309 33079 ft 457 kts 167°
2026-05-07 08:24 43.84546 23.24478 33071 ft 456 kts 167°
2026-05-07 08:25 43.78455 23.26995 33072 ft 456 kts 169°
2026-05-07 08:25 43.72354 23.29378 33068 ft 455 kts 169°
2026-05-07 08:26 43.63234 23.32933 33078 ft 454 kts 169°
2026-05-07 08:26 43.57155 23.35316 33072 ft 453 kts 169°
2026-05-07 08:27 43.51083 23.37698 33076 ft 453 kts 169°
2026-05-07 08:27 43.45047 23.40060 33072 ft 453 kts 169°
2026-05-07 08:28 43.38983 23.42429 33060 ft 453 kts 169°
2026-05-07 08:28 43.32921 23.44792 33078 ft 453 kts 169°
2026-05-07 08:29 43.26864 23.47147 33085 ft 453 kts 169°
2026-05-07 08:29 43.20795 23.49502 33105 ft 454 kts 169°
2026-05-07 08:30 43.14701 23.51862 33094 ft 455 kts 168°
2026-05-07 08:30 43.08598 23.54222 33069 ft 456 kts 168°
2026-05-07 08:31 43.02490 23.56577 33089 ft 456 kts 169°
2026-05-07 08:31 42.96408 23.58916 33087 ft 455 kts 168°
2026-05-07 08:32 42.90313 23.61259 33098 ft 454 kts 169°
2026-05-07 08:32 42.84262 23.63579 33107 ft 454 kts 169°
2026-05-07 08:33 42.78183 23.65904 33107 ft 454 kts 168°
2026-05-07 08:33 42.72094 23.68228 33114 ft 454 kts 168°
2026-05-07 08:34 42.65995 23.70551 33118 ft 455 kts 168°
2026-05-07 08:34 42.59899 23.72869 33121 ft 455 kts 168°
2026-05-07 08:35 42.53789 23.75187 33124 ft 456 kts 168°
2026-05-07 08:35 42.47673 23.77503 33109 ft 456 kts 168°
2026-05-07 08:36 42.41553 23.79815 33110 ft 457 kts 168°
2026-05-07 08:36 42.35463 23.82112 33118 ft 457 kts 168°
2026-05-07 08:37 42.29330 23.84420 33117 ft 458 kts 168°
2026-05-07 08:37 42.23193 23.86726 33120 ft 458 kts 168°
2026-05-07 08:38 42.17040 23.89032 33106 ft 458 kts 168°
2026-05-07 08:38 42.10888 23.91334 33114 ft 458 kts 168°
2026-05-07 08:39 42.04742 23.93628 33111 ft 458 kts 168°
2026-05-07 08:39 41.98620 23.95909 33107 ft 457 kts 168°
2026-05-07 08:40 41.92481 23.98192 33107 ft 458 kts 168°
2026-05-07 08:40 41.86476 24.00421 33108 ft 459 kts 168°
2026-05-07 08:41 41.80322 24.02700 33103 ft 459 kts 168°
2026-05-07 08:41 41.74164 24.04977 33113 ft 458 kts 168°
2026-05-07 08:42 41.68000 24.07251 33099 ft 459 kts 168°
2026-05-07 08:42 41.61851 24.09515 33097 ft 459 kts 168°
2026-05-07 08:43 41.55693 24.11779 33111 ft 459 kts 168°
2026-05-07 08:43 41.49512 24.13953 33110 ft 459 kts 169°
2026-05-07 08:44 41.43316 24.16009 33116 ft 458 kts 170°
2026-05-07 08:44 41.37154 24.18049 33105 ft 458 kts 170°
2026-05-07 08:45 41.30971 24.20110 33110 ft 458 kts 170°
2026-05-07 08:45 41.24778 24.22178 33116 ft 458 kts 169°
2026-05-07 08:46 41.18599 24.24240 33099 ft 458 kts 169°
2026-05-07 08:46 41.12449 24.26287 33104 ft 458 kts 170°
2026-05-07 08:47 41.06274 24.28339 33118 ft 457 kts 170°
2026-05-07 08:47 41.00095 24.30389 33118 ft 457 kts 170°
2026-05-07 08:48 40.93949 24.32423 33115 ft 456 kts 170°
2026-05-07 08:48 40.87799 24.34455 33121 ft 455 kts 170°
2026-05-07 08:49 40.81697 24.36467 33121 ft 454 kts 170°
2026-05-07 08:49 40.75565 24.38485 33121 ft 454 kts 170°
2026-05-07 08:50 40.69435 24.40498 33122 ft 454 kts 170°
2026-05-07 08:50 40.63288 24.42513 33131 ft 455 kts 170°
2026-05-07 08:51 40.57129 24.44527 33132 ft 457 kts 170°
2026-05-07 08:51 40.50953 24.46544 33130 ft 458 kts 170°
2026-05-07 08:52 40.44801 24.48550 33125 ft 459 kts 170°
2026-05-07 08:52 40.38592 24.50570 33123 ft 460 kts 170°
2026-05-07 08:53 40.32373 24.52590 33109 ft 460 kts 170°
2026-05-07 08:53 40.26160 24.54605 33125 ft 460 kts 170°
2026-05-07 08:54 40.19945 24.56615 33138 ft 459 kts 170°
2026-05-07 08:54 40.13734 24.58621 33117 ft 459 kts 170°
2026-05-07 08:55 40.07538 24.60618 33116 ft 458 kts 170°
2026-05-07 08:55 40.01348 24.62610 33123 ft 457 kts 170°
2026-05-07 08:56 39.95187 24.64588 33129 ft 457 kts 170°
2026-05-07 08:56 39.89049 24.66555 33107 ft 456 kts 170°
2026-05-07 08:57 39.82881 24.68528 33131 ft 456 kts 170°
2026-05-07 08:57 39.76721 24.70495 33121 ft 456 kts 170°
2026-05-07 08:58 39.70559 24.72459 33129 ft 456 kts 170°
2026-05-07 08:58 39.64393 24.74421 33123 ft 456 kts 170°
2026-05-07 08:59 39.58222 24.76380 33124 ft 456 kts 170°
2026-05-07 08:59 39.52056 24.78335 33123 ft 456 kts 170°
2026-05-07 09:00 39.45883 24.80289 33126 ft 457 kts 171°
2026-05-07 09:00 39.39699 24.82241 33121 ft 457 kts 170°
2026-05-07 09:01 39.33562 24.84176 33127 ft 457 kts 170°
2026-05-07 09:01 39.27373 24.86124 33123 ft 457 kts 170°
2026-05-07 09:02 39.21186 24.88068 33118 ft 458 kts 170°
2026-05-07 09:02 39.14997 24.90009 33125 ft 457 kts 171°
2026-05-07 09:03 39.08747 24.90653 33135 ft 446 kts 189°
2026-05-07 09:03 39.02766 24.88935 33144 ft 439 kts 201°
2026-05-07 09:04 38.96938 24.86610 33130 ft 439 kts 201°
2026-05-07 09:04 38.91094 24.84311 33129 ft 440 kts 200°
2026-05-07 09:05 38.85232 24.82044 33130 ft 440 kts 200°
2026-05-07 09:05 38.79405 24.79808 33130 ft 440 kts 200°
2026-05-07 09:06 38.73543 24.77563 33131 ft 440 kts 200°
2026-05-07 09:06 38.67677 24.75320 33131 ft 440 kts 200°
2026-05-07 09:07 38.61809 24.73080 33121 ft 439 kts 201°
2026-05-07 09:07 38.55947 24.70845 33131 ft 439 kts 201°
2026-05-07 09:08 38.50122 24.68628 33131 ft 439 kts 201°
2026-05-07 09:08 38.44271 24.66405 33131 ft 439 kts 200°
2026-05-07 09:09 38.38416 24.64184 33132 ft 438 kts 201°
2026-05-07 09:09 38.32568 24.61969 33132 ft 438 kts 201°
2026-05-07 09:10 38.26715 24.59756 33131 ft 438 kts 201°
2026-05-07 09:10 38.20892 24.57574 33121 ft 439 kts 198°
2026-05-07 09:11 38.15755 24.57015 33142 ft 450 kts 180°
2026-05-07 09:11 38.11647 24.58036 33144 ft 459 kts 166°
2026-05-07 09:11 38.08605 24.59323 33131 ft 460 kts 165°
2026-05-07 09:12 38.03572 24.61545 33138 ft 461 kts 165°
2026-05-07 09:12 37.97518 24.64192 33135 ft 461 kts 165°
2026-05-07 09:13 37.91433 24.66791 33140 ft 461 kts 166°
2026-05-07 09:13 37.85330 24.69365 33143 ft 462 kts 166°
2026-05-07 09:14 37.79230 24.71930 33144 ft 462 kts 166°
2026-05-07 09:14 37.73134 24.74490 33146 ft 462 kts 166°
2026-05-07 09:15 37.67025 24.77053 33154 ft 463 kts 166°
2026-05-07 09:15 37.60904 24.79617 33153 ft 463 kts 166°
2026-05-07 09:16 37.54822 24.82160 33155 ft 464 kts 166°
2026-05-07 09:16 37.48674 24.84726 33156 ft 465 kts 166°
2026-05-07 09:17 37.42523 24.87289 33162 ft 466 kts 166°
2026-05-07 09:17 37.36364 24.89850 33165 ft 467 kts 166°
2026-05-07 09:18 37.30167 24.92423 33154 ft 468 kts 166°
2026-05-07 09:18 37.24003 24.94979 33149 ft 469 kts 166°
2026-05-07 09:19 37.17793 24.97549 33160 ft 470 kts 166°
2026-05-07 09:19 37.11630 25.00095 33159 ft 472 kts 166°
2026-05-07 09:20 37.05423 25.02655 33148 ft 473 kts 166°
2026-05-07 09:20 36.99179 25.05226 33153 ft 473 kts 166°
2026-05-07 09:21 36.96025 25.06523 32771 ft 476 kts 166°
2026-05-07 09:21 36.92896 25.07810 32369 ft 470 kts 166°
2026-05-07 09:21 36.89806 25.09079 31907 ft 465 kts 166°
2026-05-07 09:21 36.86743 25.10334 31454 ft 461 kts 166°
2026-05-07 09:22 36.83706 25.11576 31022 ft 457 kts 165°
2026-05-07 09:22 36.80697 25.12805 30583 ft 452 kts 165°
2026-05-07 09:22 36.77723 25.14019 30145 ft 448 kts 165°
2026-05-07 09:22 36.74769 25.15225 29654 ft 444 kts 165°
2026-05-07 09:23 36.71838 25.16420 29208 ft 439 kts 165°
2026-05-07 09:23 36.68956 25.17595 28749 ft 434 kts 165°
2026-05-07 09:23 36.66093 25.18761 28415 ft 427 kts 165°
2026-05-07 09:23 36.63327 25.19887 28012 ft 423 kts 165°
2026-05-07 09:24 36.60508 25.21033 27581 ft 419 kts 165°
2026-05-07 09:24 36.57782 25.22141 27154 ft 416 kts 165°
2026-05-07 09:24 36.55032 25.23257 26718 ft 413 kts 165°
2026-05-07 09:24 36.52312 25.24360 26303 ft 410 kts 165°
2026-05-07 09:25 36.49601 25.25458 25879 ft 407 kts 165°
2026-05-07 09:25 36.46920 25.26544 25463 ft 405 kts 165°
2026-05-07 09:25 36.44238 25.27630 25048 ft 403 kts 165°
2026-05-07 09:25 36.41570 25.28709 24621 ft 402 kts 165°
2026-05-07 09:26 36.38916 25.29782 24199 ft 401 kts 164°
2026-05-07 09:26 36.36272 25.30850 23865 ft 398 kts 164°
2026-05-07 09:26 36.33631 25.31916 23208 ft 402 kts 164°
2026-05-07 09:26 36.30998 25.32977 22654 ft 402 kts 164°
2026-05-07 09:27 36.28349 25.34046 22238 ft 399 kts 164°
2026-05-07 09:27 36.25718 25.35106 21830 ft 395 kts 164°
2026-05-07 09:27 36.20516 25.37201 21013 ft 389 kts 164°
2026-05-07 09:28 36.17946 25.38234 20606 ft 387 kts 163°
2026-05-07 09:28 36.15394 25.39260 20212 ft 384 kts 163°
2026-05-07 09:28 36.12860 25.40276 19822 ft 382 kts 163°
2026-05-07 09:28 36.10338 25.41290 19436 ft 379 kts 163°
2026-05-07 09:29 36.07836 25.42299 19066 ft 377 kts 163°
2026-05-07 09:29 36.05388 25.43286 18684 ft 375 kts 163°
2026-05-07 09:29 36.02909 25.44285 18281 ft 373 kts 163°
2026-05-07 09:29 36.00451 25.45275 17839 ft 370 kts 163°
2026-05-07 09:30 35.98014 25.46256 17428 ft 368 kts 163°
2026-05-07 09:30 35.95587 25.47232 17013 ft 367 kts 163°
2026-05-07 09:30 35.93164 25.48205 16604 ft 365 kts 163°
2026-05-07 09:30 35.90757 25.49172 16199 ft 363 kts 163°
2026-05-07 09:31 35.88355 25.50136 15802 ft 361 kts 162°
2026-05-07 09:31 35.85969 25.51093 15418 ft 360 kts 162°
2026-05-07 09:31 35.83596 25.52044 15034 ft 358 kts 162°
2026-05-07 09:31 35.81227 25.52993 14654 ft 356 kts 162°
2026-05-07 09:32 35.78879 25.53933 14295 ft 354 kts 162°
2026-05-07 09:32 35.76570 25.54857 13934 ft 353 kts 162°
2026-05-07 09:32 35.74242 25.55788 13541 ft 351 kts 162°
2026-05-07 09:32 35.71929 25.56712 13178 ft 348 kts 162°
2026-05-07 09:33 35.69660 25.57718 12812 ft 345 kts 154°
2026-05-07 09:33 35.67668 25.59332 12439 ft 342 kts 140°
2026-05-07 09:33 35.65857 25.61190 12117 ft 338 kts 140°
2026-05-07 09:33 35.64065 25.63003 12004 ft 327 kts 140°
2026-05-07 09:34 35.62327 25.64731 11736 ft 315 kts 141°
2026-05-07 09:34 35.60429 25.65976 11349 ft 308 kts 168°
2026-05-07 09:34 35.58351 25.66117 11102 ft 295 kts 189°
2026-05-07 09:34 35.56359 25.65659 10753 ft 289 kts 193°
2026-05-07 09:35 35.54404 25.65135 10339 ft 286 kts 193°
2026-05-07 09:35 35.52465 25.64608 9911 ft 284 kts 194°
2026-05-07 09:35 35.50534 25.64088 9415 ft 284 kts 193°
2026-05-07 09:35 35.48614 25.63580 9017 ft 281 kts 193°
2026-05-07 09:36 35.46696 25.63076 8708 ft 281 kts 193°
2026-05-07 09:36 35.44814 25.62586 8452 ft 279 kts 193°
2026-05-07 09:36 35.42936 25.62099 8159 ft 273 kts 193°
2026-05-07 09:36 35.41077 25.61660 7699 ft 272 kts 185°
2026-05-07 09:37 35.39226 25.61983 7286 ft 269 kts 158°
2026-05-07 09:37 35.37462 25.62598 6987 ft 261 kts 181°
2026-05-07 09:37 35.35787 25.61992 6809 ft 248 kts 210°
2026-05-07 09:37 35.34291 25.60968 6551 ft 246 kts 207°
2026-05-07 09:38 35.32804 25.59872 6157 ft 253 kts 224°
2026-05-07 09:38 35.31903 25.58022 5894 ft 259 kts 254°
2026-05-07 09:38 35.31733 25.55814 5601 ft 263 kts 271°
2026-05-07 09:38 35.31847 25.53565 5285 ft 266 kts 272°
2026-05-07 09:39 35.31980 25.51326 4957 ft 260 kts 272°
2026-05-07 09:39 35.32101 25.49193 4687 ft 248 kts 272°
2026-05-07 09:39 35.32211 25.47139 4399 ft 235 kts 272°
2026-05-07 09:39 35.32308 25.45195 4115 ft 223 kts 272°
2026-05-07 09:40 35.32387 25.43351 3868 ft 211 kts 269°
2026-05-07 09:40 35.32426 25.41597 3616 ft 202 kts 270°
2026-05-07 09:40 35.32503 25.39897 3401 ft 199 kts 272°
2026-05-07 09:40 35.32603 25.38215 3174 ft 195 kts 272°
2026-05-07 09:41 35.32707 25.36581 2952 ft 189 kts 273°
2026-05-07 09:41 35.32813 25.35027 2897 ft 176 kts 272°
2026-05-07 09:41 35.32912 25.33507 2688 ft 186 kts 273°
2026-05-07 09:41 35.33014 25.31949 2441 ft 182 kts 273°
2026-05-07 09:42 35.33119 25.30446 2209 ft 172 kts 274°
2026-05-07 09:42 35.33223 25.29001 1932 ft 166 kts 272°
2026-05-07 09:42 35.33320 25.27649 1683 ft 161 kts 278°
2026-05-07 09:42 35.33423 25.26306 1444 ft 155 kts 273°
2026-05-07 09:43 35.33501 25.24989 1231 ft 157 kts 275°
2026-05-07 09:43 35.33590 25.23661 951 ft 157 kts 275°
2026-05-07 09:43 35.33677 25.22342 602 ft 152 kts 276°
2026-05-07 09:43 35.33756 25.21084 468 ft 151 kts 277°
2026-05-07 09:44 35.33848 25.19782 275 ft 156 kts 277°
2026-05-07 09:44 35.33944 25.18427 97 ft 155 kts 277°
2026-05-07 09:44 35.34026 25.17291 89 ft 105 kts 275°
2026-05-07 09:44 35.34063 25.16762 90 ft 21 kts 275°
2026-05-07 09:45 35.34045 25.16657 91 ft 7 kts 198°
2026-05-07 09:45 35.33996 25.16708 92 ft 12 kts 124°
2026-05-07 09:45 35.33979 25.16741 92 ft 0 kts 120°
2026-05-07 09:46 35.33972 25.16760 92 ft 11 kts 112°
2026-05-07 09:46 35.33954 25.16900 91 ft 18 kts 94°
2026-05-07 09:47 35.33943 25.17053 91 ft 16 kts 95°
2026-05-07 09:47 35.33935 25.17185 89 ft 13 kts 94°
2026-05-07 09:47 35.33927 25.17296 90 ft 14 kts 95°
2026-05-07 09:47 35.33923 25.17347 90 ft 3 kts 95°
2026-05-07 09:48 35.33919 25.17405 90 ft 12 kts 94°
2026-05-07 09:48 35.33910 25.17480 92 ft 6 kts 115°
2026-05-07 09:48 35.33855 25.17493 92 ft 9 kts 218°
2026-05-07 09:48 35.33869 25.17434 90 ft 2 kts 315°
2026-05-07 09:49 35.33875 25.17427 92 ft 0 kts 314°